Date,TemperatureHighF,TemperatureAvgF,TemperatureLowF,DewpointHighF,DewpointAvgF,DewpointLowF,HumidityHigh,HumidityAvg,HumidityLow,PressureMaxIn,PressureMinIn,WindSpeedMaxMPH,WindSpeedAvgMPH,GustSpeedMaxMPH,PrecipitationSumIn
2013-1-1,49.9,46.1,40.8,49.6,44.9,31.4,99,96,60,30.09,29.93,1,0,2,0.27
2013-1-2,48.5,44.1,40.2,44.3,40.8,38.6,99,89,70,30.17,29.99,1,0,3,0.20
2013-1-3,45.2,37.9,27.7,39.2,35.0,27.0,97,90,70,30.26,30.14,0,0,2,0.00
2013-1-4,50.1,39.9,23.6,34.4,27.0,22.9,98,63,40,30.32,30.19,2,0,6,0.00
2013-1-5,48.6,39.4,24.9,33.6,29.2,22.6,92,69,44,30.39,30.27,1,0,4,0.00
2013-1-6,50.4,42.4,32.8,41.6,37.6,31.8,97,84,68,30.19,30.04,1,0,2,0.01
2013-1-7,51.3,39.4,27.3,36.1,31.9,26.6,98,77,50,30.43,30.17,1,0,2,0.00
2013-1-8,56.4,46.4,32.8,43.2,39.9,31.5,95,79,57,30.46,30.35,1,0,1,0.00
2013-1-9,66.6,53.4,32.9,52.9,47.2,32.1,98,81,58,30.44,30.34,1,0,2,0.00
2013-1-10,62.7,54.1,44.0,49.4,45.5,42.1,99,75,51,30.51,30.40,2,0,2,0.00
2013-1-11,49.5,46.9,41.5,49.2,46.4,40.7,99,98,88,30.41,30.14,0,0,0,0.26
2013-1-12,71.3,59.8,48.9,65.9,58.1,48.6,100,94,81,30.16,30.08,1,0,3,0.01
2013-1-13,73.8,65.4,57.7,63.4,60.0,56.3,97,84,66,30.10,30.03,2,0,8,0.00
2013-1-14,69.0,63.5,57.6,65.3,61.5,56.8,98,93,84,30.13,30.06,1,0,4,0.00
2013-1-15,59.9,46.1,44.9,59.6,45.5,44.1,99,98,96,30.21,30.04,1,0,2,0.03
2013-1-16,49.1,46.2,43.0,49.1,46.0,42.7,100,99,99,30.06,29.97,0,0,2,0.21
2013-1-17,49.8,44.9,33.2,49.7,44.5,32.5,100,99,96,30.15,29.84,3,1,5,1.36
2013-1-18,44.4,35.7,26.4,33.4,29.7,25.6,99,80,54,30.53,30.14,1,0,4,0.11
2013-1-19,52.8,40.0,23.5,35.8,31.0,22.8,99,73,43,30.50,30.17,2,0,3,0.01
2013-1-20,63.2,50.5,33.3,40.5,36.4,31.2,93,63,36,30.08,29.98,2,1,7,0.00
2013-1-21,58.8,45.3,26.4,37.5,30.7,23.2,97,60,36,30.07,29.86,2,0,3,0.00
2013-1-22,38.8,32.2,24.8,26.0,9.9,2.7,74,42,22,30.28,29.96,2,0,4,0.00
2013-1-23,40.7,29.9,15.8,20.7,15.2,6.7,89,58,35,30.38,30.06,2,0,7,0.00
2013-1-24,39.4,32.1,23.6,24.7,12.0,4.8,69,44,31,30.50,30.10,2,1,6,0.00
2013-1-25,27.2,24.9,21.0,25.5,19.9,8.0,95,82,49,30.49,30.12,0,0,1,0.00
2013-1-26,42.1,32.6,25.2,34.5,30.0,24.0,97,90,69,30.39,30.11,1,0,2,0.02
2013-1-27,40.8,35.6,30.8,31.4,29.1,27.9,91,78,61,30.60,30.49,1,0,2,0.02
2013-1-28,50.6,45.2,33.3,48.1,40.4,32.3,97,83,69,30.47,30.22,2,0,3,0.12
2013-1-29,72.0,59.3,38.1,59.6,54.0,37.6,100,84,65,30.22,30.05,2,0,5,0.00
2013-1-30,73.1,68.4,59.9,65.3,63.4,57.9,95,85,75,29.93,29.39,4,2,8,0.25
2013-1-31,59.7,43.4,29.1,57.4,27.7,22.1,94,56,35,30.01,29.46,4,2,17,0.11
2013-2-1,38.4,32.9,21.7,30.3,13.5,5.3,77,48,27,30.38,29.92,3,1,7,0.00
2013-2-2,44.5,38.8,20.5,37.6,19.4,12.0,87,47,29,30.40,30.04,2,0,4,0.00
2013-2-3,50.1,42.1,28.9,33.1,28.4,25.0,86,60,46,29.99,29.84,2,1,6,0.00
2013-2-4,48.3,39.5,23.5,31.4,26.6,21.5,93,62,40,30.14,30.01,1,0,3,0.00
2013-2-5,61.4,49.0,34.8,38.7,35.5,31.3,89,62,38,29.98,29.86,2,1,5,0.00
2013-2-6,62.6,46.0,28.2,38.2,30.0,22.3,97,60,22,30.26,29.96,1,0,2,0.00
2013-2-7,46.4,42.5,33.5,42.0,38.4,28.3,97,86,73,30.31,29.97,1,0,3,0.35
2013-2-8,55.3,46.0,36.2,47.9,40.4,31.2,97,82,61,30.06,29.81,2,1,3,0.50
2013-2-9,52.6,41.2,26.5,31.9,24.6,20.1,89,56,29,30.35,30.05,2,0,3,0.00
2013-2-10,53.4,47.4,26.3,40.7,30.1,23.5,94,53,32,30.44,30.19,2,0,4,0.06
2013-2-11,61.9,58.4,51.0,60.2,57.4,51.0,100,96,92,30.08,29.91,2,0,4,0.08
2013-2-12,60.5,51.9,44.0,53.3,36.9,29.8,98,60,32,30.07,29.88,2,0,4,0.00
2013-2-13,47.0,45.4,41.9,46.5,44.4,37.2,98,96,82,29.83,29.61,1,0,5,0.05
2013-2-14,51.4,41.5,28.0,36.8,33.6,27.5,99,76,51,30.06,29.98,1,0,2,0.00
2013-2-15,61.3,48.4,28.0,42.4,35.6,27.3,98,66,34,30.08,29.92,2,0,5,0.01
2013-2-16,44.0,34.0,29.8,36.7,32.3,25.8,98,94,74,29.95,29.82,1,0,3,0.28
2013-2-17,38.4,30.5,20.4,18.7,14.7,11.4,86,54,33,30.29,30.08,3,1,10,0.00
2013-2-18,51.5,39.8,15.3,28.6,22.9,13.6,96,54,32,30.41,30.24,1,0,3,0.02
2013-2-19,49.4,42.0,30.0,48.8,40.8,27.7,98,95,72,30.25,29.86,2,0,5,0.22
2013-2-20,52.4,39.7,26.6,33.4,24.1,17.2,98,60,26,30.13,29.96,2,0,4,0.00
2013-2-21,55.8,44.5,22.3,29.3,23.0,19.5,91,46,27,30.24,30.10,1,0,3,0.00
2013-2-22,42.2,35.9,33.2,35.6,34.2,29.4,98,94,61,30.33,30.12,1,0,1,0.51
2013-2-23,42.8,40.7,35.9,42.5,40.3,35.4,99,98,98,30.11,29.81,1,0,1,0.79
2013-2-24,62.8,50.9,33.8,45.0,37.4,31.7,93,64,33,30.02,29.87,2,1,5,0.10
2013-2-25,42.1,37.1,30.8,31.6,26.5,24.1,92,67,51,30.22,30.02,1,0,3,0.00
2013-2-26,56.3,46.9,33.2,56.3,46.4,29.4,100,98,81,30.12,29.54,2,0,4,0.79
2013-2-27,59.5,47.9,35.6,42.7,39.7,34.6,98,76,50,29.78,29.69,2,1,4,0.00
2013-2-28,50.3,42.7,32.9,40.6,32.1,28.0,99,68,44,29.85,29.69,2,1,6,0.00
2013-3-1,48.0,42.4,27.5,34.1,31.4,26.3,96,66,50,29.91,29.83,2,0,7,0.00
2013-3-2,47.7,40.7,29.8,32.0,27.8,20.8,94,61,48,29.92,29.80,1,0,4,0.00
2013-3-3,47.1,39.4,26.6,25.2,22.6,19.8,77,52,41,29.98,29.84,2,1,5,0.00
2013-3-4,51.9,38.0,20.5,25.1,20.1,16.4,87,53,26,30.11,30.01,2,1,4,0.00
2013-3-5,45.7,41.4,30.3,44.6,38.0,24.9,99,88,55,30.07,29.55,1,0,2,0.33
2013-3-6,46.9,41.3,36.2,44.3,31.6,28.0,99,70,52,30.03,29.54,4,2,13,0.03
2013-3-7,54.0,44.2,30.1,33.5,30.8,26.5,90,61,44,30.23,30.10,2,1,6,0.00
2013-3-8,56.7,46.7,34.5,30.0,28.1,26.0,72,50,32,30.29,30.14,2,1,4,0.00
2013-3-9,65.1,49.4,30.8,36.2,32.5,27.7,88,56,29,30.33,30.21,1,0,3,0.00
2013-3-10,68.6,57.8,43.3,36.7,33.1,28.1,75,42,23,30.30,30.18,2,0,5,0.00
2013-3-11,67.3,60.3,33.9,54.5,50.8,30.7,93,72,58,30.15,29.91,2,1,3,0.00
2013-3-12,71.7,61.8,48.1,63.1,52.9,35.1,99,74,47,29.93,29.73,2,1,6,0.73
2013-3-13,58.0,47.9,31.1,35.6,27.8,21.2,95,49,28,30.11,29.93,3,1,7,0.00
2013-3-14,55.4,44.4,26.5,25.1,22.2,19.6,81,44,28,30.24,30.10,2,1,6,0.00
2013-3-15,62.4,51.6,25.5,37.9,32.8,23.0,90,52,33,30.18,29.89,3,1,6,0.00
2013-3-16,79.2,67.1,40.4,50.6,47.3,35.4,85,52,35,29.89,29.65,3,1,6,0.00
2013-3-17,61.9,51.8,43.0,51.0,44.2,39.3,93,76,63,30.14,29.98,2,1,9,0.00
2013-3-18,43.1,40.6,37.9,41.7,39.6,36.9,98,96,95,30.18,29.83,1,0,3,0.52
2013-3-19,67.8,56.4,40.7,48.0,33.9,19.9,99,49,22,30.00,29.83,3,1,6,0.00
2013-3-20,57.8,46.3,32.6,30.8,22.9,15.7,82,44,23,30.10,29.77,2,0,7,0.00
2013-3-21,46.9,39.8,30.9,28.6,17.5,12.3,82,42,28,29.96,29.77,3,1,6,0.00
2013-3-22,54.4,41.0,20.8,27.9,19.5,14.7,80,45,24,30.08,29.96,2,1,5,0.00
2013-3-23,55.0,46.0,33.8,34.1,29.1,23.1,87,54,37,30.04,29.90,1,0,2,0.00
2013-3-24,40.0,38.5,36.7,38.7,37.3,35.7,97,95,94,29.72,29.56,2,0,5,0.71
2013-3-25,47.9,42.3,33.6,39.6,30.5,25.3,98,65,45,29.82,29.56,4,1,10,0.01
2013-3-26,48.9,43.1,28.3,31.8,29.2,25.7,90,59,48,30.11,29.81,2,0,6,0.00
2013-3-27,53.3,43.9,29.8,27.8,25.3,23.1,79,51,31,30.22,30.13,3,1,6,0.00
2013-3-28,58.6,47.0,26.6,30.6,27.6,23.3,87,50,30,30.29,30.15,3,1,5,0.00
2013-3-29,60.9,48.8,25.6,33.8,29.1,23.3,92,52,26,30.33,30.17,2,0,6,0.00
2013-3-30,67.4,57.0,36.9,44.5,41.2,34.3,91,58,39,30.23,30.06,2,0,3,0.00
2013-3-31,69.0,61.1,53.2,62.4,56.6,52.7,98,86,66,29.90,29.78,2,1,5,0.55
2013-4-1,73.4,63.2,48.5,54.7,45.9,41.4,99,57,33,29.93,29.79,3,1,6,0.03
2013-4-2,64.1,52.6,33.3,42.9,32.8,28.1,93,51,28,30.14,29.94,2,1,5,0.00
2013-4-3,63.3,53.1,42.5,36.5,27.0,20.1,79,40,23,30.28,30.18,2,1,4,0.00
2013-4-4,44.6,41.4,38.8,40.0,36.6,29.3,97,84,57,30.32,29.92,2,1,4,0.89
2013-4-5,67.7,52.1,38.3,49.8,45.5,37.8,98,80,49,30.00,29.88,2,0,5,0.01
2013-4-6,69.6,56.2,36.2,42.1,35.9,30.5,95,51,26,30.25,30.14,2,0,4,0.00
2013-4-7,73.6,64.2,48.4,49.9,44.7,40.1,87,52,34,30.25,30.09,2,1,4,0.00
2013-4-8,81.2,68.3,47.0,58.0,54.5,45.6,99,65,39,30.16,30.03,3,1,5,0.00
2013-4-9,86.4,74.2,52.3,61.2,58.4,51.5,99,61,39,30.16,30.03,2,1,5,0.00
2013-4-10,88.7,74.6,54.5,63.4,60.1,53.1,99,64,39,30.08,29.92,2,1,4,0.00
2013-4-11,83.0,72.9,59.6,67.0,63.2,58.4,97,74,49,29.97,29.76,2,1,4,0.00
2013-4-12,83.9,71.5,58.7,71.1,64.0,53.4,99,79,46,29.74,29.58,2,1,6,0.54
2013-4-13,78.3,65.2,45.2,48.4,44.5,40.9,92,51,28,29.98,29.86,2,0,5,0.00
2013-4-14,81.8,73.7,63.1,55.0,47.6,39.7,73,42,24,30.08,29.99,2,0,2,0.00
2013-4-15,72.1,65.5,58.4,60.4,58.6,54.3,97,79,63,30.17,30.01,1,0,1,0.04
2013-4-16,77.2,67.9,59.6,62.7,60.6,58.3,97,79,56,30.27,30.17,1,0,1,0.00
2013-4-17,84.7,68.9,52.4,66.6,61.8,51.6,99,80,53,30.22,30.08,1,0,3,0.00
2013-4-18,80.9,71.2,57.1,64.6,61.9,56.0,98,74,53,30.17,30.01,1,0,3,0.00
2013-4-19,82.9,73.1,64.5,69.7,66.7,63.1,98,82,59,30.01,29.69,3,1,7,0.65
2013-4-20,68.2,54.9,43.0,63.8,40.7,35.1,98,63,33,30.25,29.79,1,0,3,0.04
2013-4-21,63.9,56.7,44.3,45.2,42.8,40.7,90,62,46,30.46,30.38,1,0,3,0.00
2013-4-22,63.8,53.1,37.9,46.1,39.9,34.7,90,63,41,30.44,30.24,2,0,5,0.00
2013-4-23,71.2,59.7,48.9,54.2,50.2,46.1,95,73,51,30.26,30.10,1,0,2,0.04
2013-4-24,77.4,66.3,48.2,59.0,56.3,46.8,99,73,50,30.14,29.95,2,0,5,0.00
2013-4-25,75.0,61.0,45.5,55.9,45.9,42.1,93,61,33,30.25,29.99,1,0,3,0.00
2013-4-26,75.1,62.1,40.9,50.3,43.2,36.6,98,56,27,30.41,30.25,1,0,3,0.00
2013-4-27,74.0,63.6,50.4,55.2,51.3,44.8,95,67,38,30.36,30.24,1,0,3,0.00
2013-4-28,59.6,57.3,55.7,56.8,55.4,52.9,99,93,84,30.21,30.08,0,0,1,1.25
2013-4-29,75.4,64.0,55.9,66.1,61.9,55.6,100,93,71,30.08,29.94,1,0,2,0.40
2013-4-30,66.2,62.1,55.3,61.3,59.3,54.3,99,91,82,30.15,29.99,0,0,2,0.01
2013-5-1,61.9,59.4,57.3,59.0,57.5,56.4,97,93,89,30.29,30.18,1,0,4,0.01
2013-5-2,64.2,59.9,53.5,59.5,57.1,52.7,97,90,84,30.30,30.23,1,0,3,0.00
2013-5-3,70.0,61.6,49.3,58.2,52.9,44.9,99,74,62,30.24,30.13,1,0,3,0.01
2013-5-4,67.6,59.0,50.0,54.4,51.4,47.2,91,77,60,30.17,30.04,2,0,4,0.00
2013-5-5,58.6,57.7,53.4,56.9,55.1,50.2,96,91,86,30.04,29.94,1,0,2,0.01
2013-5-6,71.4,62.8,56.7,65.7,61.2,56.1,99,95,81,29.92,29.80,1,0,1,0.86
2013-5-7,72.8,61.0,51.6,59.1,54.7,51.3,100,82,49,29.93,29.84,1,0,3,0.00
2013-5-8,73.2,62.8,53.2,64.7,58.9,52.4,99,88,63,29.98,29.91,1,0,3,0.05
2013-5-9,82.2,68.9,50.5,64.7,59.3,50.2,100,75,47,30.05,29.97,1,0,3,0.01
2013-5-10,87.4,75.0,54.5,67.2,63.3,54.2,100,70,41,30.04,29.92,1,0,8,0.00
2013-5-11,84.4,73.0,64.7,68.8,65.2,60.4,97,78,52,29.93,29.76,2,0,5,0.03
2013-5-12,73.1,63.7,53.0,54.7,45.6,39.6,64,53,34,30.01,29.87,2,0,2,0.00
2013-5-13,69.7,59.4,44.1,44.7,40.0,34.9,93,53,31,30.16,30.01,2,0,5,0.00
2013-5-14,74.8,60.7,37.1,49.0,43.5,36.1,98,57,33,30.25,30.06,2,0,4,0.00
2013-5-15,90.4,74.9,52.4,66.3,60.7,46.5,88,64,42,30.06,29.88,2,0,4,0.00
2013-5-16,85.8,74.8,59.7,68.5,63.8,58.8,98,71,42,29.97,29.90,2,0,4,0.00
2013-5-17,87.9,77.5,62.7,69.4,65.9,61.8,97,70,45,30.06,29.96,1,0,3,0.00
2013-5-18,79.6,71.9,62.2,69.7,66.6,61.6,99,84,65,30.12,30.04,1,0,2,0.20
2013-5-19,79.5,71.6,67.0,72.1,68.5,66.6,99,91,74,30.12,30.02,1,0,7,0.50
2013-5-20,72.9,69.4,66.4,72.3,69.1,66.4,100,99,96,30.09,30.00,0,0,1,0.49
2013-5-21,83.7,74.3,66.5,76.0,71.3,65.7,100,91,72,30.03,29.92,1,0,3,0.11
2013-5-22,84.8,74.6,66.4,73.2,69.7,65.8,98,85,65,30.01,29.89,1,0,3,0.00
2013-5-23,80.3,72.6,65.0,71.6,68.8,63.6,99,89,72,29.93,29.79,1,0,3,0.34
2013-5-24,71.6,65.0,52.2,63.6,50.8,40.5,99,63,34,30.17,29.83,3,1,9,0.02
2013-5-25,76.8,63.2,40.7,55.2,45.8,38.0,98,58,30,30.27,30.12,2,0,4,0.00
2013-5-26,76.6,65.8,51.3,56.6,51.9,46.5,94,64,41,30.26,30.15,1,0,3,0.00
2013-5-27,83.0,72.2,53.1,61.0,57.4,52.8,99,63,38,30.26,30.13,1,0,2,0.00
2013-5-28,86.0,76.7,59.3,69.3,66.0,55.9,98,71,54,30.23,30.12,1,0,3,0.00
2013-5-29,86.0,76.0,59.9,68.9,66.0,59.0,99,73,53,30.22,30.13,1,0,2,0.00
2013-5-30,88.6,79.2,66.7,69.2,67.2,64.0,95,69,46,30.25,30.15,1,0,3,0.00
2013-5-31,88.7,79.4,66.8,71.0,68.8,65.0,95,72,51,30.21,30.07,1,0,5,0.00
2013-6-1,88.6,78.6,64.4,72.0,68.6,63.8,99,73,53,30.12,29.99,1,0,3,0.00
2013-6-2,87.8,81.5,72.2,71.8,70.4,68.9,94,70,56,29.98,29.87,1,0,3,0.10
2013-6-3,83.4,74.0,65.4,74.9,70.6,64.8,99,90,71,29.92,29.80,2,0,3,0.38
2013-6-4,69.9,66.4,64.5,68.0,65.4,63.9,98,97,93,30.03,29.92,0,0,0,0.00
2013-6-5,82.1,74.2,68.9,69.0,65.7,62.4,85,75,61,30.11,29.99,1,0,1,0.00
2013-6-6,73.8,71.2,66.2,73.4,70.8,65.6,99,98,97,29.92,29.79,0,0,1,0.52
2013-6-7,74.0,70.0,68.4,71.8,69.7,68.4,100,99,92,29.80,29.51,1,0,4,2.91
2013-6-8,85.4,75.5,66.8,75.6,70.8,65.9,100,87,66,30.07,29.79,1,0,3,0.09
2013-6-9,86.0,80.3,68.6,76.4,73.8,68.0,98,81,67,30.12,30.03,1,0,2,0.00
2013-6-10,83.7,75.3,71.0,78.6,73.6,69.9,100,94,78,30.03,29.86,2,0,4,1.22
2013-6-11,86.7,77.7,67.1,72.9,69.1,65.9,98,77,53,29.93,29.88,2,0,5,0.00
2013-6-12,91.8,80.1,61.6,78.2,73.4,61.3,100,82,59,29.96,29.83,1,0,4,0.00
2013-6-13,95.4,79.8,66.3,77.7,72.5,65.7,100,81,50,29.84,29.58,2,0,9,0.16
2013-6-14,83.0,73.6,59.8,65.2,61.6,58.1,100,69,44,29.98,29.78,1,0,3,0.01
2013-6-15,85.8,75.4,57.6,69.3,65.1,57.3,100,73,47,30.11,30.02,1,0,4,0.00
2013-6-16,87.3,80.4,64.5,72.6,70.4,63.3,96,73,59,30.07,29.98,2,0,6,0.00
2013-6-17,86.0,76.6,68.3,75.9,71.9,66.5,98,86,68,30.01,29.90,1,0,2,0.02
2013-6-18,84.1,75.0,69.0,76.0,71.7,68.5,99,90,73,29.95,29.73,1,0,5,0.55
2013-6-19,81.4,74.0,64.4,73.1,69.3,64.4,100,86,69,30.09,29.85,1,0,2,0.00
2013-6-20,84.1,74.5,64.4,69.8,66.0,62.8,99,77,51,30.21,30.09,1,0,2,0.00
2013-6-21,85.8,75.2,59.7,67.3,62.0,56.1,99,66,41,30.24,30.16,1,0,2,0.00
2013-6-22,81.6,73.7,68.7,74.9,71.1,67.8,99,92,75,30.18,30.08,0,0,1,0.19
2013-6-23,85.5,76.8,69.7,76.9,73.7,69.2,99,91,72,30.18,30.10,1,0,1,0.02
2013-6-24,85.9,78.0,69.9,78.6,74.3,68.4,100,89,75,30.18,30.06,0,0,1,0.02
2013-6-25,89.9,78.1,69.0,77.0,73.1,68.0,99,85,63,30.11,29.98,2,0,5,0.00
2013-6-26,89.4,78.5,68.4,78.7,73.3,67.8,100,85,66,30.00,29.86,2,0,8,0.11
2013-6-27,89.5,82.1,68.3,78.6,75.7,67.7,98,82,68,29.91,29.69,1,0,5,0.01
2013-6-28,91.8,80.9,70.7,77.7,73.9,69.5,99,81,60,29.68,29.55,1,0,3,1.22
2013-6-29,85.7,77.1,69.4,77.4,73.9,69.1,100,90,74,29.70,29.63,1,0,3,0.56
2013-6-30,86.3,73.2,68.4,78.2,71.4,67.9,100,94,75,29.85,29.70,1,0,2,6.27
2013-7-1,82.1,74.9,68.8,76.8,72.9,68.8,100,94,82,29.96,29.85,1,0,1,0.74
2013-7-2,74.9,73.4,72.4,74.2,73.0,71.9,100,99,97,30.15,29.96,1,0,1,0.31
2013-7-3,81.8,75.8,71.7,78.3,74.8,71.4,100,97,87,30.22,30.14,1,0,2,0.66
2013-7-4,85.9,79.0,71.7,78.5,75.6,71.4,100,90,73,30.25,30.14,1,0,2,0.03
2013-7-5,87.0,78.8,72.2,77.9,75.0,71.4,100,89,71,30.25,30.20,1,0,2,0.00
2013-7-6,87.2,78.8,72.0,78.3,74.9,70.2,100,88,73,30.23,30.09,0,0,1,0.00
2013-7-7,88.4,81.9,71.6,78.7,76.6,70.1,97,84,72,30.16,30.03,1,0,3,0.00
2013-7-8,89.6,80.4,72.0,78.1,74.8,70.7,99,84,65,30.15,30.06,1,0,3,0.00
2013-7-9,88.6,79.4,71.4,79.8,75.3,70.0,99,88,74,30.14,30.03,1,0,3,0.00
2013-7-10,89.8,79.4,71.4,79.0,75.5,70.2,99,88,67,30.08,29.92,1,0,4,0.23
2013-7-11,80.6,75.4,72.3,76.5,74.1,72.0,100,96,87,29.95,29.85,1,0,4,0.36
2013-7-12,77.2,73.2,70.5,74.2,71.8,69.5,100,95,88,30.00,29.87,1,0,2,0.02
2013-7-13,76.8,74.0,70.4,76.2,73.4,69.5,100,98,95,30.14,29.99,0,0,1,0.26
2013-7-14,86.1,79.7,71.8,77.9,75.2,71.2,99,87,72,30.26,30.21,1,0,1,0.00
2013-7-15,90.0,80.2,67.6,78.1,74.6,67.6,100,85,64,30.30,30.22,0,0,1,0.00
2013-7-16,92.5,82.3,67.0,79.3,74.0,65.9,98,77,58,30.26,30.15,0,0,1,0.03
2013-7-17,92.1,83.8,74.3,77.5,73.6,68.1,82,72,58,30.19,30.08,0,0,2,0.00
2013-7-18,91.4,83.0,74.0,77.9,73.2,68.0,82,73,62,30.11,30.01,1,0,6,0.00
2013-7-19,90.9,82.6,74.1,78.4,73.5,67.9,81,74,65,30.08,29.95,1,0,3,0.00
2013-7-20,88.8,81.1,74.7,79.0,73.7,68.5,82,79,70,30.01,29.89,1,0,3,0.07
2013-7-21,88.9,80.0,72.2,78.8,72.7,66.4,82,79,70,29.97,29.87,1,0,2,0.10
2013-7-22,88.8,79.9,71.4,78.1,72.3,66.0,83,78,67,29.93,29.80,1,0,5,0.00
2013-7-23,90.5,82.4,73.1,78.6,73.2,66.9,81,74,61,29.83,29.70,1,0,4,0.00
2013-7-24,91.8,80.7,71.1,78.8,71.3,65.3,82,74,59,29.82,29.71,1,0,2,0.56
2013-7-25,80.0,74.0,67.2,71.8,67.0,61.0,81,79,75,30.01,29.83,0,0,1,0.00
2013-7-26,85.3,78.3,68.4,73.1,68.1,62.0,80,71,60,30.08,30.00,1,0,2,0.00
2013-7-27,82.8,73.1,68.1,73.6,66.1,61.7,81,79,72,30.03,29.91,1,0,2,0.43
2013-7-28,86.3,79.1,67.4,76.2,71.1,61.7,82,77,67,29.99,29.90,1,0,3,0.00
2013-7-29,86.6,76.1,66.8,73.7,67.1,60.4,82,74,56,30.13,30.03,1,0,6,0.02
2013-7-30,87.8,75.8,60.3,75.1,66.9,54.4,83,75,55,30.20,30.11,1,0,2,0.00
2013-7-31,81.1,76.6,69.8,74.0,69.9,63.7,81,80,78,30.12,29.98,1,0,1,0.51
2013-8-1,85.7,76.3,70.6,76.5,69.4,64.5,81,79,74,29.99,29.83,1,0,2,0.07
2013-8-2,88.0,78.9,69.6,78.0,70.5,63.5,83,76,63,30.00,29.94,1,0,1,0.00
2013-8-3,89.5,80.6,70.6,78.8,73.0,64.1,84,78,67,29.99,29.88,1,0,4,0.00
2013-8-4,84.9,77.9,67.0,72.0,68.0,60.6,85,72,54,30.00,29.92,1,0,2,0.00
2013-8-5,81.6,75.0,65.2,72.5,67.2,59.2,85,77,64,30.07,29.97,1,0,1,0.00
2013-8-6,81.7,74.4,67.7,71.6,67.3,61.3,84,79,68,30.04,30.00,1,0,5,0.23
2013-8-7,84.8,77.4,68.1,76.3,70.2,61.7,84,79,68,30.08,30.00,1,0,3,0.00
2013-8-8,89.0,79.8,68.7,77.5,71.5,62.6,82,76,64,30.05,29.97,1,0,3,0.00
2013-8-9,90.8,80.9,73.6,80.0,73.8,67.0,84,79,69,30.03,29.95,1,0,7,0.00
2013-8-10,93.8,79.7,72.3,80.5,71.9,65.8,84,78,64,30.07,29.99,2,0,4,0.05
2013-8-11,91.9,84.2,75.6,80.5,75.7,69.0,84,76,65,30.08,29.98,1,0,3,0.01
2013-8-12,92.3,83.0,73.2,78.2,73.5,67.0,84,74,57,30.02,29.91,1,0,2,0.00
2013-8-13,85.8,78.0,71.0,79.0,71.6,64.9,84,81,77,29.94,29.75,1,0,2,0.81
2013-8-14,75.0,71.0,63.0,68.7,65.3,57.8,85,82,78,30.06,29.91,0,0,1,0.00
2013-8-15,75.1,66.8,58.2,65.1,59.8,52.7,86,79,62,30.15,30.05,1,0,1,0.00
2013-8-16,68.3,65.0,59.8,63.3,59.8,54.6,85,83,81,30.15,29.89,0,0,0,0.00
2013-8-17,70.9,67.2,60.8,64.8,61.4,55.3,84,81,81,29.95,29.89,0,0,1,0.24
2013-8-18,82.5,75.9,68.7,74.7,69.7,63.1,87,81,72,29.98,29.91,1,0,2,0.02
2013-8-19,73.4,69.9,66.7,68.6,64.3,60.7,85,82,81,29.94,29.87,0,0,0,0.17
2013-8-20,82.9,76.0,69.5,75.2,70.1,63.4,85,82,76,29.96,29.90,0,0,0,0.00
2013-8-21,85.8,75.8,69.7,77.3,69.8,63.6,85,82,74,30.00,29.87,1,0,2,0.67
2013-8-22,87.8,78.8,69.9,78.1,71.5,63.7,84,79,64,29.92,29.77,1,0,3,0.00
2013-8-23,87.3,77.2,66.5,77.3,70.7,60.8,87,81,67,29.85,29.70,1,0,2,0.00
2013-8-24,82.6,72.7,62.4,66.5,63.4,58.1,87,74,52,30.07,29.85,1,0,4,0.00
2013-8-25,80.5,71.8,58.5,65.6,61.7,54.0,86,72,53,30.17,30.06,1,0,4,0.00
2013-8-26,84.7,70.8,54.3,66.9,60.3,49.2,86,71,46,30.08,29.90,1,0,2,0.00
2013-8-27,86.8,76.5,58.6,75.5,68.9,53.5,86,78,62,29.84,29.74,1,0,2,0.00
2013-8-28,82.9,77.1,67.1,76.8,71.4,61.4,85,83,79,29.77,29.65,0,0,1,0.00
2013-8-29,86.8,79.6,71.4,77.0,72.5,66.2,86,79,67,29.78,29.65,1,0,2,0.00
2013-8-30,89.6,76.3,64.9,73.1,67.5,59.6,87,75,52,29.84,29.71,1,0,2,0.00
2013-8-31,86.7,78.5,66.7,75.9,71.6,61.0,86,80,68,29.75,29.63,1,0,2,0.00
2013-9-1,87.8,79.5,69.5,79.5,73.2,63.8,85,81,72,29.67,29.54,1,0,4,0.21
2013-9-2,87.3,78.3,69.9,78.8,72.1,64.2,85,81,72,29.67,29.57,1,0,2,0.00
2013-9-3,87.6,79.1,71.8,76.7,71.8,66.4,86,79,65,29.71,29.58,1,0,4,0.01
2013-9-4,86.8,75.3,64.1,76.3,69.4,59.8,88,82,69,29.86,29.71,1,0,2,0.00
2013-9-5,87.0,75.3,62.9,70.5,64.9,58.6,87,72,46,29.88,29.81,1,0,3,0.00
2013-9-6,83.7,72.6,61.3,66.4,62.6,57.3,88,72,53,29.95,29.86,1,0,4,0.00
2013-9-7,82.3,71.2,55.5,69.3,63.1,50.7,87,76,60,29.92,29.75,1,0,2,0.00
2013-9-8,86.7,77.6,63.3,70.0,64.6,58.7,86,66,46,29.77,29.69,1,0,2,0.00
2013-9-9,86.1,76.2,63.6,74.5,68.7,58.0,86,78,58,29.93,29.77,1,0,1,0.00
2013-9-10,87.5,77.6,64.1,73.6,68.7,58.8,87,75,57,30.01,29.91,1,0,5,0.00
2013-9-11,86.9,76.6,63.5,75.2,69.1,58.2,86,78,61,29.98,29.85,1,0,4,0.00
2013-9-12,88.9,78.4,66.6,75.5,70.0,61.3,87,76,60,29.85,29.58,2,0,4,0.00
2013-9-13,83.7,75.0,65.0,68.1,63.0,57.3,87,67,51,29.67,29.53,2,0,3,0.00
2013-9-14,75.9,66.7,57.0,60.4,55.4,51.0,88,68,51,29.91,29.67,1,0,4,0.00
2013-9-15,78.4,71.8,61.7,66.2,61.6,57.5,87,71,58,30.01,29.90,1,0,2,0.00
2013-9-16,83.5,74.7,61.6,70.7,65.2,57.4,86,73,51,29.96,29.81,1,0,3,0.32
2013-9-17,75.1,66.7,55.1,61.1,56.1,51.6,88,70,49,30.08,29.96,1,0,2,0.00
2013-9-18,72.7,62.5,50.3,57.0,52.5,45.6,88,72,42,30.09,29.95,1,0,2,0.00
2013-9-19,77.8,68.0,52.0,66.1,60.4,48.6,88,78,60,29.98,29.85,2,0,2,0.00
2013-9-20,71.5,67.6,64.1,66.8,63.1,60.2,88,86,83,29.86,29.74,0,0,1,0.08
2013-9-21,78.6,71.6,65.1,71.8,66.2,59.5,87,83,78,29.74,29.50,1,0,4,0.83
2013-9-22,66.0,62.9,61.9,60.7,57.7,56.7,84,83,83,29.56,29.50,1,0,2,0.95
2013-9-27,72.0,64.6,52.8,61.5,57.2,49.0,88,78,64,29.97,29.88,0,0,2,0.00
2013-9-28,69.3,61.9,48.0,59.4,54.6,43.4,88,78,63,30.04,29.94,1,0,5,0.00
2013-9-29,70.9,63.7,51.3,59.6,55.3,47.3,87,75,60,29.93,29.82,1,0,4,0.00
2013-9-30,70.7,58.3,51.0,61.1,53.8,46.9,87,85,68,29.89,29.79,1,0,2,0.00
2013-10-1,78.2,66.0,48.0,66.5,58.7,43.7,87,78,57,29.91,29.80,1,0,3,0.00
2013-10-2,79.7,69.2,56.1,67.1,61.4,51.0,87,77,55,29.92,29.82,1,0,2,0.00
2013-10-3,80.0,69.8,54.9,70.4,63.0,50.2,86,80,62,29.91,29.83,0,0,2,0.00
2013-10-4,82.4,71.7,58.0,70.0,64.3,52.9,87,78,57,29.92,29.83,1,0,3,0.00
2013-10-5,83.4,73.2,57.8,71.7,65.5,52.7,87,78,59,29.90,29.81,1,0,2,0.00
2013-10-6,80.3,75.6,69.8,72.4,69.6,64.7,87,82,71,29.84,29.70,1,0,3,0.00
2013-10-7,72.0,69.0,62.1,66.2,63.4,57.6,86,82,82,29.77,29.63,1,0,2,2.51
2013-10-8,62.1,59.2,53.6,58.2,52.2,49.4,88,78,71,29.99,29.76,1,0,4,0.21
2013-10-9,63.9,59.5,53.6,58.0,55.0,49.5,89,85,80,29.96,29.89,1,0,6,0.02
2013-10-10,61.2,58.6,53.9,56.7,54.4,49.9,88,86,84,29.82,29.72,0,0,2,0.21
2013-10-11,69.5,65.3,60.0,64.5,60.9,56.1,89,86,81,29.75,29.69,1,0,2,0.00
2013-10-12,68.6,64.9,60.9,64.9,61.2,56.7,89,88,84,29.86,29.75,1,0,2,0.01
2013-10-13,67.3,65.3,61.9,63.7,61.9,58.0,90,89,87,29.98,29.92,1,0,2,0.03
2013-10-14,65.2,61.9,56.8,61.9,58.2,53.0,90,88,84,30.02,29.95,1,0,2,0.08
2013-10-15,70.4,63.6,52.4,63.1,58.1,47.8,88,83,72,29.96,29.83,0,0,3,0.00
2013-10-16,68.3,64.6,59.5,63.4,60.5,55.3,89,86,82,29.84,29.74,0,0,2,0.00
2013-10-17,73.7,67.4,58.3,66.8,62.6,53.5,88,85,76,29.75,29.63,1,0,4,0.00
2013-10-18,66.5,62.5,57.7,62.0,55.8,51.7,89,79,65,29.83,29.67,0,0,1,0.00
2013-10-19,69.7,63.2,57.9,65.0,59.4,53.6,89,87,84,29.76,29.60,0,0,1,0.00
2013-10-20,61.5,54.5,44.3,49.2,45.0,41.3,89,72,57,29.90,29.82,0,0,3,0.01
2013-10-21,64.7,55.2,36.3,54.9,48.6,33.1,89,79,58,29.96,29.80,1,0,2,0.00
2013-10-22,63.7,58.5,50.0,60.1,54.7,46.3,89,87,84,29.80,29.59,0,0,0,0.00
2013-10-23,65.3,57.7,44.8,55.6,44.3,34.5,87,63,40,29.80,29.48,3,1,7,0.00
2013-10-24,56.9,48.2,35.1,43.7,38.4,32.5,90,71,47,29.97,29.80,2,0,6,0.00
2013-10-25,53.9,46.8,33.3,40.7,34.7,30.6,90,65,42,30.16,29.97,1,0,5,0.00
2013-10-26,56.3,44.2,27.8,41.4,34.9,25.2,90,72,46,30.16,29.88,2,0,6,0.00
2013-10-27,65.9,56.4,43.3,51.4,45.5,40.3,89,69,48,29.92,29.83,1,0,6,0.00
2013-10-28,63.4,56.4,46.8,57.5,52.2,42.8,89,86,78,30.05,29.99,0,0,0,0.00
2013-10-29,69.5,59.6,49.7,60.7,53.7,45.6,88,81,67,30.12,30.04,1,0,2,0.03
2013-10-30,72.7,61.9,48.6,62.8,56.1,44.3,88,82,66,30.08,29.94,1,0,4,0.00
2013-10-31,72.8,65.7,53.9,63.0,59.3,49.2,87,80,65,29.96,29.71,1,0,6,0.00
2013-11-1,71.0,66.6,58.7,66.8,61.9,53.5,88,85,82,29.71,29.46,1,0,4,1.01
2013-11-2,68.3,59.1,48.2,56.0,51.1,44.8,88,76,48,29.73,29.49,2,0,5,0.00
2013-11-3,60.7,50.8,37.5,44.7,40.1,34.6,89,70,47,30.15,29.72,1,0,7,0.00
2013-11-4,53.8,44.5,32.1,40.9,36.1,28.7,89,74,50,30.34,30.15,1,0,3,0.00
2013-11-5,57.4,51.2,36.1,48.8,45.6,33.2,89,81,70,30.33,30.21,1,0,4,0.00
2013-11-6,67.7,58.2,47.3,58.1,52.4,42.7,89,81,68,30.21,29.90,1,0,2,0.00
2013-11-7,68.0,59.1,44.8,61.7,51.2,36.3,87,75,62,29.90,29.71,1,0,5,0.01
2013-11-8,55.3,44.2,30.5,36.3,32.3,27.8,90,66,37,30.12,29.89,2,0,3,0.00
2013-11-9,57.5,47.2,29.1,41.0,36.0,26.3,90,68,41,30.18,29.99,2,0,4,0.00
2013-11-10,70.5,57.5,42.3,44.3,39.9,34.7,85,56,30,30.03,29.85,2,0,6,0.00
2013-11-11,56.6,45.5,31.3,38.8,33.5,28.4,89,66,39,30.15,29.94,1,0,3,0.00
2013-11-12,60.3,44.1,31.2,44.2,35.7,28.3,90,75,47,30.22,29.87,2,0,5,0.04
2013-11-13,43.0,34.2,23.9,28.2,23.3,20.9,90,66,42,30.33,30.22,1,0,5,0.00
2013-11-14,54.9,41.0,23.6,32.2,27.2,21.1,90,62,32,30.28,30.14,2,0,5,0.00
2013-11-15,58.3,48.5,27.7,51.8,41.6,24.6,90,78,52,30.16,30.00,1,0,1,0.00
2013-11-16,67.1,57.8,47.3,59.4,53.1,43.9,89,85,76,30.06,29.98,1,0,2,0.00
2013-11-17,69.5,64.7,49.5,62.7,59.5,45.7,87,83,77,30.00,29.68,1,0,2,0.10
2013-11-18,74.3,63.0,50.2,62.9,52.0,34.3,87,69,41,29.75,29.57,2,0,7,0.07
2013-11-19,55.0,46.4,36.1,36.0,32.8,30.5,87,61,41,30.10,29.75,1,0,5,0.00
2013-11-20,52.7,44.7,37.1,37.4,34.9,29.9,89,69,53,30.24,30.09,1,0,4,0.00
2013-11-21,60.1,51.6,39.1,50.3,45.7,36.1,89,81,68,30.29,30.17,0,0,2,0.00
2013-11-22,69.4,61.2,45.6,61.9,56.4,42.3,89,84,75,30.19,29.88,2,0,5,0.01
2013-11-23,59.8,52.7,38.3,55.6,40.7,25.6,86,65,43,29.95,29.82,1,0,4,0.02
2013-11-24,37.9,31.1,22.0,15.5,10.9,6.2,74,45,30,30.34,30.20,2,0,6,0.00
2013-11-25,41.5,34.2,18.1,24.6,17.2,11.1,89,52,29,30.40,30.17,1,0,2,0.00
2013-11-26,64.2,46.7,35.7,58.6,41.3,20.6,89,82,48,30.18,29.38,2,0,5,0.95
2013-11-27,45.9,36.9,27.2,41.3,32.4,22.4,89,84,69,29.97,29.32,2,0,5,0.42
2013-11-28,42.9,32.3,21.0,29.0,24.2,18.5,90,74,47,30.29,29.97,1,0,4,0.00
2013-11-29,50.6,37.0,21.2,31.4,27.3,18.7,90,71,44,30.43,30.28,1,0,4,0.00
2013-11-30,47.9,37.2,26.9,35.6,30.5,24.1,90,78,61,30.44,30.17,1,0,3,0.00
2013-12-1,57.7,49.1,37.9,43.7,40.1,34.9,89,73,49,30.05,29.83,1,0,3,0.00
2013-12-2,59.7,46.9,35.9,47.0,40.9,33.0,90,81,58,29.73,29.60,1,0,3,0.00
2013-12-3,54.2,47.7,30.7,48.6,43.3,27.6,89,85,78,29.79,29.67,0,0,1,0.00
2013-12-4,64.6,56.5,49.1,59.0,52.5,45.7,89,87,82,29.89,29.78,0,0,1,0.00
2013-12-5,66.2,63.0,50.7,62.1,58.1,46.7,87,84,82,29.92,29.82,1,0,3,0.04
2013-12-6,76.6,70.4,64.8,66.5,64.0,60.2,88,81,69,29.86,29.75,3,1,7,0.00
2013-12-7,67.3,47.0,43.6,63.9,42.2,36.6,90,83,75,30.23,29.79,1,0,5,0.21
2013-12-8,34.8,34.3,33.7,32.2,31.7,31.1,90,90,89,30.23,30.10,1,0,6,0.06
2013-12-9,45.3,41.4,35.2,41.1,37.5,31.7,87,86,85,30.00,29.86,1,0,2,0.19
2013-12-10,47.9,41.6,27.8,43.8,37.6,25.2,90,86,69,30.12,29.70,1,0,3,0.40
2013-12-11,48.2,35.6,21.4,34.1,28.2,18.9,90,76,48,30.26,30.09,1,0,3,0.00
2013-12-12,44.0,34.1,23.8,28.2,23.7,20.1,90,68,41,30.22,30.09,1,0,7,0.00
2013-12-13,51.3,37.3,20.2,32.0,26.6,18.0,91,69,36,30.20,30.07,2,0,4,0.00
2013-12-14,45.7,41.5,36.4,40.1,37.4,33.5,90,85,67,30.02,29.58,1,0,2,0.86
2013-12-15,53.5,43.6,30.3,44.5,34.7,27.7,90,72,56,29.87,29.57,2,1,5,0.02
2013-12-16,54.6,40.9,26.4,40.2,33.9,23.6,90,78,51,29.98,29.89,1,0,4,0.00
2013-12-17,60.2,48.2,28.9,42.4,37.5,25.8,90,68,47,29.92,29.68,2,0,6,0.00
2013-12-18,50.0,39.2,26.9,34.2,23.8,20.3,87,57,32,30.09,29.82,2,0,7,0.00
2013-12-19,61.4,44.7,24.5,36.4,30.9,21.9,90,63,27,30.13,30.02,1,0,5,0.00
2013-12-20,64.9,53.9,37.4,54.9,47.7,32.3,89,80,63,30.04,29.91,2,0,5,0.00
2013-12-21,71.7,62.3,42.3,65.5,57.3,38.7,89,84,70,29.95,29.83,2,0,4,0.00
2013-12-22,76.7,70.3,63.4,68.3,63.4,58.3,88,79,69,29.87,29.80,2,1,6,0.19
2013-12-23,66.0,58.7,46.4,60.3,54.0,40.2,89,84,79,29.94,29.76,2,0,4,1.66
2013-12-24,47.4,39.5,29.5,34.0,27.6,17.8,80,62,50,30.25,29.99,2,0,7,0.00
2013-12-25,40.3,29.4,21.5,21.8,17.7,14.4,90,64,37,30.35,30.20,1,0,2,0.00
2013-12-26,51.7,37.5,23.4,34.4,29.7,20.8,90,76,43,30.21,30.04,1,0,3,0.01
2013-12-27,51.2,36.8,22.8,32.7,26.1,20.6,91,69,36,30.26,30.17,1,0,2,0.00
2013-12-28,57.6,43.9,21.8,40.6,33.3,19.6,91,70,34,30.21,29.96,1,0,3,0.00
2013-12-29,55.1,48.5,40.6,50.0,44.4,36.3,88,86,83,29.72,29.51,2,0,5,2.06
2013-12-30,53.6,45.0,32.4,47.4,40.0,28.7,88,83,69,29.93,29.72,1,0,2,0.00
2013-12-31,50.0,39.8,28.8,39.0,31.4,25.2,90,75,38,30.15,29.91,3,0,4,0.00
2014-1-1,49.7,39.1,28.5,34.4,30.1,25.9,90,73,42,30.22,29.96,1,0,3,0.00
2014-1-2,47.2,43.5,36.9,43.8,39.8,34.2,90,87,83,29.80,29.39,1,0,2,0.32